owner,sensor,date,latitude,longitude,air_pressure(mBar),qcFlag 
WAVCIS,ioos:station:WAVCIS:CSI15:1,2011-05-01T00:00:00Z,28.8332,-90.8320,1010.86,11111222 
WAVCIS,ioos:station:WAVCIS:CSI15:1,2011-05-01T01:00:00Z,28.8332,-90.8320,1011.23,11111222 
WAVCIS,ioos:station:WAVCIS:CSI15:1,2011-05-01T02:00:00Z,28.8332,-90.8320,1011.26,11111222 
WAVCIS,ioos:station:WAVCIS:CSI15:1,2011-05-01T03:00:00Z,28.8332,-90.8320,1011.38,11111222 
WAVCIS,ioos:station:WAVCIS:CSI15:1,2011-05-01T04:00:00Z,28.8332,-90.8320,1011.66,11111222 
WAVCIS,ioos:station:WAVCIS:CSI15:1,2011-05-01T05:00:00Z,28.8332,-90.8320,1011.94,11111222 
WAVCIS,ioos:station:WAVCIS:CSI15:1,2011-05-01T06:00:00Z,28.8332,-90.8320,1011.91,11111222 
WAVCIS,ioos:station:WAVCIS:CSI15:1,2011-05-01T07:00:00Z,28.8332,-90.8320,1011.37,11111222 
WAVCIS,ioos:station:WAVCIS:CSI15:1,2011-05-01T08:00:00Z,28.8332,-90.8320,1010.59,11111222 
WAVCIS,ioos:station:WAVCIS:CSI15:1,2011-05-01T09:00:00Z,28.8332,-90.8320,1010.1,11111222 
WAVCIS,ioos:station:WAVCIS:CSI15:1,2011-05-01T10:00:00Z,28.8332,-90.8320,1010.15,11111222 
WAVCIS,ioos:station:WAVCIS:CSI15:1,2011-05-01T11:00:00Z,28.8332,-90.8320,1010.41,11111222 
WAVCIS,ioos:station:WAVCIS:CSI15:1,2011-05-01T12:00:00Z,28.8332,-90.8320,1011.48,11111222 
WAVCIS,ioos:station:WAVCIS:CSI15:1,2011-05-01T13:00:00Z,28.8332,-90.8320,1012.07,11111222 
WAVCIS,ioos:station:WAVCIS:CSI15:1,2011-05-01T14:00:00Z,28.8332,-90.8320,1012.28,11111222 
WAVCIS,ioos:station:WAVCIS:CSI15:1,2011-05-01T15:00:00Z,28.8332,-90.8320,1012.45,11111222 
WAVCIS,ioos:station:WAVCIS:CSI15:1,2011-05-01T16:00:00Z,28.8332,-90.8320,1013.0,11111222 
WAVCIS,ioos:station:WAVCIS:CSI15:1,2011-05-01T17:00:00Z,28.8332,-90.8320,1013.24,11111222 
WAVCIS,ioos:station:WAVCIS:CSI15:1,2011-05-01T18:00:00Z,28.8332,-90.8320,1013.07,11111222 
WAVCIS,ioos:station:WAVCIS:CSI15:1,2011-05-01T19:00:00Z,28.8332,-90.8320,1012.87,11111222 
WAVCIS,ioos:station:WAVCIS:CSI15:1,2011-05-01T20:00:00Z,28.8332,-90.8320,1012.32,11111222 
WAVCIS,ioos:station:WAVCIS:CSI15:1,2011-05-01T21:00:00Z,28.8332,-90.8320,1011.91,11111222 
WAVCIS,ioos:station:WAVCIS:CSI15:1,2011-05-01T22:00:00Z,28.8332,-90.8320,1011.92,11111222 
WAVCIS,ioos:station:WAVCIS:CSI15:1,2011-05-01T23:00:00Z,28.8332,-90.8320,1012.02,11111222 
WAVCIS,ioos:station:WAVCIS:CSI15:1,2011-05-02T00:00:00Z,28.8332,-90.8320,1011.98,11111222 
WAVCIS,ioos:station:WAVCIS:CSI15:1,2011-05-02T01:00:00Z,28.8332,-90.8320,1012.2,11111222 
WAVCIS,ioos:station:WAVCIS:CSI15:1,2011-05-02T02:00:00Z,28.8332,-90.8320,1012.6,11111222 
WAVCIS,ioos:station:WAVCIS:CSI15:1,2011-05-02T03:00:00Z,28.8332,-90.8320,1012.82,11111222 
WAVCIS,ioos:station:WAVCIS:CSI15:1,2011-05-02T04:00:00Z,28.8332,-90.8320,1013.01,11111222 
WAVCIS,ioos:station:WAVCIS:CSI15:1,2011-05-02T05:00:00Z,28.8332,-90.8320,1012.79,11111222 
WAVCIS,ioos:station:WAVCIS:CSI15:1,2011-05-02T06:00:00Z,28.8332,-90.8320,1012.66,11111222 
WAVCIS,ioos:station:WAVCIS:CSI15:1,2011-05-02T07:00:00Z,28.8332,-90.8320,1012.1,11111222 
WAVCIS,ioos:station:WAVCIS:CSI15:1,2011-05-02T08:00:00Z,28.8332,-90.8320,1011.8,11111222 
WAVCIS,ioos:station:WAVCIS:CSI15:1,2011-05-02T09:00:00Z,28.8332,-90.8320,1011.95,11111222 
WAVCIS,ioos:station:WAVCIS:CSI15:1,2011-05-02T10:00:00Z,28.8332,-90.8320,1012.39,11111222 
WAVCIS,ioos:station:WAVCIS:CSI15:1,2011-05-02T11:00:00Z,28.8332,-90.8320,1012.63,11111222 
WAVCIS,ioos:station:WAVCIS:CSI15:1,2011-05-02T12:00:00Z,28.8332,-90.8320,1013.38,11111222 
WAVCIS,ioos:station:WAVCIS:CSI15:1,2011-05-02T13:00:00Z,28.8332,-90.8320,1013.99,11111222 
WAVCIS,ioos:station:WAVCIS:CSI15:1,2011-05-02T14:00:00Z,28.8332,-90.8320,1014.94,11111222 
WAVCIS,ioos:station:WAVCIS:CSI15:1,2011-05-02T15:00:00Z,28.8332,-90.8320,1015.6,11111222 
WAVCIS,ioos:station:WAVCIS:CSI15:1,2011-05-02T16:00:00Z,28.8332,-90.8320,1015.7,11111222 
WAVCIS,ioos:station:WAVCIS:CSI15:1,2011-05-02T17:00:00Z,28.8332,-90.8320,1016.11,11111222 
WAVCIS,ioos:station:WAVCIS:CSI15:1,2011-05-02T18:00:00Z,28.8332,-90.8320,1015.86,11111222 
WAVCIS,ioos:station:WAVCIS:CSI15:1,2011-05-02T19:00:00Z,28.8332,-90.8320,1015.64,11111222 
WAVCIS,ioos:station:WAVCIS:CSI15:1,2011-05-02T20:00:00Z,28.8332,-90.8320,1015.01,11111222 
WAVCIS,ioos:station:WAVCIS:CSI15:1,2011-05-02T21:00:00Z,28.8332,-90.8320,1014.79,11111222 
WAVCIS,ioos:station:WAVCIS:CSI15:1,2011-05-02T22:00:00Z,28.8332,-90.8320,1014.47,11111222 
WAVCIS,ioos:station:WAVCIS:CSI15:1,2011-05-02T23:00:00Z,28.8332,-90.8320,1014.37,11111222 
WAVCIS,ioos:station:WAVCIS:CSI15:1,2011-05-03T00:00:00Z,28.8332,-90.8320,1014.4,11111222 
WAVCIS,ioos:station:WAVCIS:CSI15:1,2011-05-03T01:00:00Z,28.8332,-90.8320,1014.87,11111222 
WAVCIS,ioos:station:WAVCIS:CSI15:1,2011-05-03T02:00:00Z,28.8332,-90.8320,1015.44,11111222 
WAVCIS,ioos:station:WAVCIS:CSI15:1,2011-05-03T03:00:00Z,28.8332,-90.8320,1015.78,11111222 
WAVCIS,ioos:station:WAVCIS:CSI15:1,2011-05-03T04:00:00Z,28.8332,-90.8320,1015.66,11111222 
WAVCIS,ioos:station:WAVCIS:CSI15:1,2011-05-03T05:00:00Z,28.8332,-90.8320,1015.52,11111222 
WAVCIS,ioos:station:WAVCIS:CSI15:1,2011-05-03T06:00:00Z,28.8332,-90.8320,1015.75,11111222 
WAVCIS,ioos:station:WAVCIS:CSI15:1,2011-05-03T07:00:00Z,28.8332,-90.8320,1015.48,11111222 
WAVCIS,ioos:station:WAVCIS:CSI15:1,2011-05-03T08:00:00Z,28.8332,-90.8320,1015.63,11111222 
WAVCIS,ioos:station:WAVCIS:CSI15:1,2011-05-03T09:00:00Z,28.8332,-90.8320,1015.46,11111222 
WAVCIS,ioos:station:WAVCIS:CSI15:1,2011-05-03T10:00:00Z,28.8332,-90.8320,1015.2,11111222 
WAVCIS,ioos:station:WAVCIS:CSI15:1,2011-05-03T11:00:00Z,28.8332,-90.8320,1015.29,11111222 
WAVCIS,ioos:station:WAVCIS:CSI15:1,2011-05-03T12:00:00Z,28.8332,-90.8320,1016.42,11111222 
WAVCIS,ioos:station:WAVCIS:CSI15:1,2011-05-03T13:00:00Z,28.8332,-90.8320,1017.24,11111222 
WAVCIS,ioos:station:WAVCIS:CSI15:1,2011-05-03T14:00:00Z,28.8332,-90.8320,1017.76,11111222 
WAVCIS,ioos:station:WAVCIS:CSI15:1,2011-05-03T15:00:00Z,28.8332,-90.8320,1018.21,11111222 
WAVCIS,ioos:station:WAVCIS:CSI15:1,2011-05-03T16:00:00Z,28.8332,-90.8320,1018.67,11111222 
WAVCIS,ioos:station:WAVCIS:CSI15:1,2011-05-03T17:00:00Z,28.8332,-90.8320,1018.85,11111222 
WAVCIS,ioos:station:WAVCIS:CSI15:1,2011-05-03T18:00:00Z,28.8332,-90.8320,1018.76,11111222 
WAVCIS,ioos:station:WAVCIS:CSI15:1,2011-05-03T19:00:00Z,28.8332,-90.8320,1018.73,11111222 
WAVCIS,ioos:station:WAVCIS:CSI15:1,2011-05-03T20:00:00Z,28.8332,-90.8320,1018.36,11111222 
WAVCIS,ioos:station:WAVCIS:CSI15:1,2011-05-03T21:00:00Z,28.8332,-90.8320,1018.27,11111222 
WAVCIS,ioos:station:WAVCIS:CSI15:1,2011-05-03T22:00:00Z,28.8332,-90.8320,1018.5,11111222 
WAVCIS,ioos:station:WAVCIS:CSI15:1,2011-05-03T23:00:00Z,28.8332,-90.8320,1018.95,11111222 
WAVCIS,ioos:station:WAVCIS:CSI15:1,2011-05-04T00:00:00Z,28.8332,-90.8320,1019.29,11111222 
WAVCIS,ioos:station:WAVCIS:CSI15:1,2011-05-04T01:00:00Z,28.8332,-90.8320,1019.55,11111222 
WAVCIS,ioos:station:WAVCIS:CSI15:1,2011-05-04T02:00:00Z,28.8332,-90.8320,1020.21,11111222 
WAVCIS,ioos:station:WAVCIS:CSI15:1,2011-05-04T03:00:00Z,28.8332,-90.8320,1020.91,11111222 
WAVCIS,ioos:station:WAVCIS:CSI15:1,2011-05-04T04:00:00Z,28.8332,-90.8320,1020.99,11111222 
WAVCIS,ioos:station:WAVCIS:CSI15:1,2011-05-04T05:00:00Z,28.8332,-90.8320,1021.31,11111222 
WAVCIS,ioos:station:WAVCIS:CSI15:1,2011-05-04T06:00:00Z,28.8332,-90.8320,1021.21,11111222 
WAVCIS,ioos:station:WAVCIS:CSI15:1,2011-05-04T07:00:00Z,28.8332,-90.8320,1021.06,11111222 
WAVCIS,ioos:station:WAVCIS:CSI15:1,2011-05-04T08:00:00Z,28.8332,-90.8320,1021.19,11111222 
WAVCIS,ioos:station:WAVCIS:CSI15:1,2011-05-04T09:00:00Z,28.8332,-90.8320,1021.46,11111222 
WAVCIS,ioos:station:WAVCIS:CSI15:1,2011-05-04T10:00:00Z,28.8332,-90.8320,1021.74,11111222 
WAVCIS,ioos:station:WAVCIS:CSI15:1,2011-05-04T11:00:00Z,28.8332,-90.8320,1022.11,11111222 
WAVCIS,ioos:station:WAVCIS:CSI15:1,2011-05-04T12:00:00Z,28.8332,-90.8320,1022.71,11111222 
WAVCIS,ioos:station:WAVCIS:CSI15:1,2011-05-04T13:00:00Z,28.8332,-90.8320,1023.13,11111222 
WAVCIS,ioos:station:WAVCIS:CSI15:1,2011-05-04T14:00:00Z,28.8332,-90.8320,1023.8,11111222 
WAVCIS,ioos:station:WAVCIS:CSI15:1,2011-05-04T15:00:00Z,28.8332,-90.8320,1024.27,11111222 
WAVCIS,ioos:station:WAVCIS:CSI15:1,2011-05-04T16:00:00Z,28.8332,-90.8320,1024.08,11111222 
WAVCIS,ioos:station:WAVCIS:CSI15:1,2011-05-04T17:00:00Z,28.8332,-90.8320,1024.04,11111222 
WAVCIS,ioos:station:WAVCIS:CSI15:1,2011-05-04T18:00:00Z,28.8332,-90.8320,1023.64,11111222 
WAVCIS,ioos:station:WAVCIS:CSI15:1,2011-05-04T19:00:00Z,28.8332,-90.8320,1023.05,11111222 
WAVCIS,ioos:station:WAVCIS:CSI15:1,2011-05-04T20:00:00Z,28.8332,-90.8320,1022.44,11111222 
WAVCIS,ioos:station:WAVCIS:CSI15:1,2011-05-04T21:00:00Z,28.8332,-90.8320,1022.04,11111222 
WAVCIS,ioos:station:WAVCIS:CSI15:1,2011-05-04T22:00:00Z,28.8332,-90.8320,1021.89,11111222 
WAVCIS,ioos:station:WAVCIS:CSI15:1,2011-05-04T23:00:00Z,28.8332,-90.8320,1021.63,11111222 
WAVCIS,ioos:station:WAVCIS:CSI15:1,2011-05-05T00:00:00Z,28.8332,-90.8320,1021.62,11111222 
WAVCIS,ioos:station:WAVCIS:CSI15:1,2011-05-05T01:00:00Z,28.8332,-90.8320,1021.74,11111222 
WAVCIS,ioos:station:WAVCIS:CSI15:1,2011-05-05T02:00:00Z,28.8332,-90.8320,1021.86,11111222 
WAVCIS,ioos:station:WAVCIS:CSI15:1,2011-05-05T03:00:00Z,28.8332,-90.8320,1022.13,11111222 
WAVCIS,ioos:station:WAVCIS:CSI15:1,2011-05-05T04:00:00Z,28.8332,-90.8320,1022.29,11111222 
WAVCIS,ioos:station:WAVCIS:CSI15:1,2011-05-05T05:00:00Z,28.8332,-90.8320,1022.12,11111222 
WAVCIS,ioos:station:WAVCIS:CSI15:1,2011-05-05T06:00:00Z,28.8332,-90.8320,1021.51,11111222 
WAVCIS,ioos:station:WAVCIS:CSI15:1,2011-05-05T07:00:00Z,28.8332,-90.8320,1020.79,11111222 
WAVCIS,ioos:station:WAVCIS:CSI15:1,2011-05-05T08:00:00Z,28.8332,-90.8320,1020.39,11111222 
WAVCIS,ioos:station:WAVCIS:CSI15:1,2011-05-05T09:00:00Z,28.8332,-90.8320,1019.88,11111222 
WAVCIS,ioos:station:WAVCIS:CSI15:1,2011-05-05T10:00:00Z,28.8332,-90.8320,1019.93,11111222 
WAVCIS,ioos:station:WAVCIS:CSI15:1,2011-05-05T11:00:00Z,28.8332,-90.8320,1019.9,11111222 
WAVCIS,ioos:station:WAVCIS:CSI15:1,2011-05-05T12:00:00Z,28.8332,-90.8320,1020.3,11111222 
WAVCIS,ioos:station:WAVCIS:CSI15:1,2011-05-05T13:00:00Z,28.8332,-90.8320,1020.59,11111222 
WAVCIS,ioos:station:WAVCIS:CSI15:1,2011-05-05T14:00:00Z,28.8332,-90.8320,1020.43,11111222 
WAVCIS,ioos:station:WAVCIS:CSI15:1,2011-05-05T15:00:00Z,28.8332,-90.8320,1020.61,11111222 
WAVCIS,ioos:station:WAVCIS:CSI15:1,2011-05-05T16:00:00Z,28.8332,-90.8320,1020.64,11111222 
WAVCIS,ioos:station:WAVCIS:CSI15:1,2011-05-05T17:00:00Z,28.8332,-90.8320,1020.49,11111222 
WAVCIS,ioos:station:WAVCIS:CSI15:1,2011-05-05T18:00:00Z,28.8332,-90.8320,1020.01,11111222 
WAVCIS,ioos:station:WAVCIS:CSI15:1,2011-05-05T19:00:00Z,28.8332,-90.8320,1019.22,11111222 
WAVCIS,ioos:station:WAVCIS:CSI15:1,2011-05-05T20:00:00Z,28.8332,-90.8320,1018.7,11111222 
WAVCIS,ioos:station:WAVCIS:CSI15:1,2011-05-05T21:00:00Z,28.8332,-90.8320,1018.05,11111222 
WAVCIS,ioos:station:WAVCIS:CSI15:1,2011-05-05T22:00:00Z,28.8332,-90.8320,1017.34,11111222 
WAVCIS,ioos:station:WAVCIS:CSI15:1,2011-05-05T23:00:00Z,28.8332,-90.8320,1017.01,11111222 
WAVCIS,ioos:station:WAVCIS:CSI15:1,2011-05-06T00:00:00Z,28.8332,-90.8320,1016.64,11111222 
WAVCIS,ioos:station:WAVCIS:CSI15:1,2011-05-06T01:00:00Z,28.8332,-90.8320,1016.6,11111222 
WAVCIS,ioos:station:WAVCIS:CSI15:1,2011-05-06T02:00:00Z,28.8332,-90.8320,1017.27,11111222 
WAVCIS,ioos:station:WAVCIS:CSI15:1,2011-05-06T03:00:00Z,28.8332,-90.8320,1017.31,11111222 
WAVCIS,ioos:station:WAVCIS:CSI15:1,2011-05-06T04:00:00Z,28.8332,-90.8320,1017.31,11111222 
WAVCIS,ioos:station:WAVCIS:CSI15:1,2011-05-06T05:00:00Z,28.8332,-90.8320,1017.11,11111222 
WAVCIS,ioos:station:WAVCIS:CSI15:1,2011-05-06T06:00:00Z,28.8332,-90.8320,1016.89,11111222 
WAVCIS,ioos:station:WAVCIS:CSI15:1,2011-05-06T07:00:00Z,28.8332,-90.8320,1016.43,11111222 
WAVCIS,ioos:station:WAVCIS:CSI15:1,2011-05-06T08:00:00Z,28.8332,-90.8320,1016.15,11111222 
WAVCIS,ioos:station:WAVCIS:CSI15:1,2011-05-06T09:00:00Z,28.8332,-90.8320,1016.13,11111222 
WAVCIS,ioos:station:WAVCIS:CSI15:1,2011-05-06T10:00:00Z,28.8332,-90.8320,1016.12,11111222 
WAVCIS,ioos:station:WAVCIS:CSI15:1,2011-05-06T11:00:00Z,28.8332,-90.8320,1015.96,11111222 
WAVCIS,ioos:station:WAVCIS:CSI15:1,2011-05-06T12:00:00Z,28.8332,-90.8320,1016.55,11111222 
WAVCIS,ioos:station:WAVCIS:CSI15:1,2011-05-06T13:00:00Z,28.8332,-90.8320,1016.96,11111222 
WAVCIS,ioos:station:WAVCIS:CSI15:1,2011-05-06T14:00:00Z,28.8332,-90.8320,1017.15,11111222 
WAVCIS,ioos:station:WAVCIS:CSI15:1,2011-05-06T15:00:00Z,28.8332,-90.8320,1017.61,11111222 
WAVCIS,ioos:station:WAVCIS:CSI15:1,2011-05-06T16:00:00Z,28.8332,-90.8320,1017.47,11111222 
WAVCIS,ioos:station:WAVCIS:CSI15:1,2011-05-06T17:00:00Z,28.8332,-90.8320,1017.27,11111222 
WAVCIS,ioos:station:WAVCIS:CSI15:1,2011-05-06T18:00:00Z,28.8332,-90.8320,1016.94,11111222 
WAVCIS,ioos:station:WAVCIS:CSI15:1,2011-05-06T19:00:00Z,28.8332,-90.8320,1016.3,11111222 
WAVCIS,ioos:station:WAVCIS:CSI15:1,2011-05-06T20:00:00Z,28.8332,-90.8320,1015.52,11111222 
WAVCIS,ioos:station:WAVCIS:CSI15:1,2011-05-06T21:00:00Z,28.8332,-90.8320,1014.65,11111222 
WAVCIS,ioos:station:WAVCIS:CSI15:1,2011-05-06T22:00:00Z,28.8332,-90.8320,1014.39,11111222 
WAVCIS,ioos:station:WAVCIS:CSI15:1,2011-05-06T23:00:00Z,28.8332,-90.8320,1014.1,11111222 
WAVCIS,ioos:station:WAVCIS:CSI15:1,2011-05-07T00:00:00Z,28.8332,-90.8320,1013.88,11111222 
WAVCIS,ioos:station:WAVCIS:CSI15:1,2011-05-07T01:00:00Z,28.8332,-90.8320,1014.14,11111222 
WAVCIS,ioos:station:WAVCIS:CSI15:1,2011-05-07T02:00:00Z,28.8332,-90.8320,1014.28,11111222 
WAVCIS,ioos:station:WAVCIS:CSI15:1,2011-05-07T03:00:00Z,28.8332,-90.8320,1014.62,11111222 
WAVCIS,ioos:station:WAVCIS:CSI15:1,2011-05-07T04:00:00Z,28.8332,-90.8320,1014.67,11111222 
WAVCIS,ioos:station:WAVCIS:CSI15:1,2011-05-07T05:00:00Z,28.8332,-90.8320,1014.09,11111222 
WAVCIS,ioos:station:WAVCIS:CSI15:1,2011-05-07T06:00:00Z,28.8332,-90.8320,1013.94,11111222 
WAVCIS,ioos:station:WAVCIS:CSI15:1,2011-05-07T07:00:00Z,28.8332,-90.8320,1013.79,11111222 
WAVCIS,ioos:station:WAVCIS:CSI15:1,2011-05-07T08:00:00Z,28.8332,-90.8320,1013.17,11111222 
WAVCIS,ioos:station:WAVCIS:CSI15:1,2011-05-07T09:00:00Z,28.8332,-90.8320,1012.95,11111222 
WAVCIS,ioos:station:WAVCIS:CSI15:1,2011-05-07T10:00:00Z,28.8332,-90.8320,1012.62,11111222 
WAVCIS,ioos:station:WAVCIS:CSI15:1,2011-05-07T11:00:00Z,28.8332,-90.8320,1012.99,11111222 
WAVCIS,ioos:station:WAVCIS:CSI15:1,2011-05-07T12:00:00Z,28.8332,-90.8320,1013.52,11111222 
WAVCIS,ioos:station:WAVCIS:CSI15:1,2011-05-07T13:00:00Z,28.8332,-90.8320,1013.95,11111222 
WAVCIS,ioos:station:WAVCIS:CSI15:1,2011-05-07T14:00:00Z,28.8332,-90.8320,1014.32,11111222 
WAVCIS,ioos:station:WAVCIS:CSI15:1,2011-05-07T15:00:00Z,28.8332,-90.8320,1014.55,11111222 
WAVCIS,ioos:station:WAVCIS:CSI15:1,2011-05-07T16:00:00Z,28.8332,-90.8320,1014.8,11111222 
WAVCIS,ioos:station:WAVCIS:CSI15:1,2011-05-07T17:00:00Z,28.8332,-90.8320,1014.66,11111222 
WAVCIS,ioos:station:WAVCIS:CSI15:1,2011-05-07T18:00:00Z,28.8332,-90.8320,1014.2,11111222 
WAVCIS,ioos:station:WAVCIS:CSI15:1,2011-05-07T19:00:00Z,28.8332,-90.8320,1013.8,11111222 
WAVCIS,ioos:station:WAVCIS:CSI15:1,2011-05-07T20:00:00Z,28.8332,-90.8320,1013.32,11111222 
WAVCIS,ioos:station:WAVCIS:CSI15:1,2011-05-07T21:00:00Z,28.8332,-90.8320,1012.89,11111222 
WAVCIS,ioos:station:WAVCIS:CSI15:1,2011-05-07T22:00:00Z,28.8332,-90.8320,1012.64,11111222 
WAVCIS,ioos:station:WAVCIS:CSI15:1,2011-05-07T23:00:00Z,28.8332,-90.8320,1012.41,11111222 
WAVCIS,ioos:station:WAVCIS:CSI15:1,2011-05-08T00:00:00Z,28.8332,-90.8320,1012.19,11111222 
WAVCIS,ioos:station:WAVCIS:CSI15:1,2011-05-08T01:00:00Z,28.8332,-90.8320,1012.66,11111222 
WAVCIS,ioos:station:WAVCIS:CSI15:1,2011-05-08T02:00:00Z,28.8332,-90.8320,1012.96,11111222 
WAVCIS,ioos:station:WAVCIS:CSI15:1,2011-05-08T03:00:00Z,28.8332,-90.8320,1012.99,11111222 
WAVCIS,ioos:station:WAVCIS:CSI15:1,2011-05-08T04:00:00Z,28.8332,-90.8320,1012.66,11111222 
WAVCIS,ioos:station:WAVCIS:CSI15:1,2011-05-08T05:00:00Z,28.8332,-90.8320,1012.4,11111222 
WAVCIS,ioos:station:WAVCIS:CSI15:1,2011-05-08T06:00:00Z,28.8332,-90.8320,1012.26,11111222 
WAVCIS,ioos:station:WAVCIS:CSI15:1,2011-05-08T07:00:00Z,28.8332,-90.8320,1011.99,11111222 
WAVCIS,ioos:station:WAVCIS:CSI15:1,2011-05-08T08:00:00Z,28.8332,-90.8320,1011.81,11111222 
WAVCIS,ioos:station:WAVCIS:CSI15:1,2011-05-08T09:00:00Z,28.8332,-90.8320,1011.83,11111222 
WAVCIS,ioos:station:WAVCIS:CSI15:1,2011-05-08T10:00:00Z,28.8332,-90.8320,1011.77,11111222 
WAVCIS,ioos:station:WAVCIS:CSI15:1,2011-05-08T11:00:00Z,28.8332,-90.8320,1012.08,11111222 
WAVCIS,ioos:station:WAVCIS:CSI15:1,2011-05-08T12:00:00Z,28.8332,-90.8320,1012.49,11111222 
WAVCIS,ioos:station:WAVCIS:CSI15:1,2011-05-08T13:00:00Z,28.8332,-90.8320,1012.99,11111222 
WAVCIS,ioos:station:WAVCIS:CSI15:1,2011-05-08T14:00:00Z,28.8332,-90.8320,1013.26,11111222 
WAVCIS,ioos:station:WAVCIS:CSI15:1,2011-05-08T15:00:00Z,28.8332,-90.8320,1013.55,11111222 
WAVCIS,ioos:station:WAVCIS:CSI15:1,2011-05-08T16:00:00Z,28.8332,-90.8320,1013.61,11111222 
WAVCIS,ioos:station:WAVCIS:CSI15:1,2011-05-08T17:00:00Z,28.8332,-90.8320,1013.45,11111222 
WAVCIS,ioos:station:WAVCIS:CSI15:1,2011-05-08T18:00:00Z,28.8332,-90.8320,1013.01,11111222 
WAVCIS,ioos:station:WAVCIS:CSI15:1,2011-05-08T19:00:00Z,28.8332,-90.8320,1012.88,11111222 
WAVCIS,ioos:station:WAVCIS:CSI15:1,2011-05-08T20:00:00Z,28.8332,-90.8320,1012.62,11111222 
WAVCIS,ioos:station:WAVCIS:CSI15:1,2011-05-08T21:00:00Z,28.8332,-90.8320,1012.08,11111222 
WAVCIS,ioos:station:WAVCIS:CSI15:1,2011-05-08T22:00:00Z,28.8332,-90.8320,1011.74,11111222 
WAVCIS,ioos:station:WAVCIS:CSI15:1,2011-05-08T23:00:00Z,28.8332,-90.8320,1011.49,11111222 
WAVCIS,ioos:station:WAVCIS:CSI15:1,2011-05-09T00:00:00Z,28.8332,-90.8320,1011.24,11111222 
WAVCIS,ioos:station:WAVCIS:CSI15:1,2011-05-09T01:00:00Z,28.8332,-90.8320,1011.27,11111222 
WAVCIS,ioos:station:WAVCIS:CSI15:1,2011-05-09T02:00:00Z,28.8332,-90.8320,1011.56,11111222 
WAVCIS,ioos:station:WAVCIS:CSI15:1,2011-05-09T03:00:00Z,28.8332,-90.8320,1011.6,11111222 
WAVCIS,ioos:station:WAVCIS:CSI15:1,2011-05-09T04:00:00Z,28.8332,-90.8320,1011.68,11111222 
WAVCIS,ioos:station:WAVCIS:CSI15:1,2011-05-09T05:00:00Z,28.8332,-90.8320,1011.52,11111222 
WAVCIS,ioos:station:WAVCIS:CSI15:1,2011-05-09T06:00:00Z,28.8332,-90.8320,1011.36,11111222 
WAVCIS,ioos:station:WAVCIS:CSI15:1,2011-05-09T07:00:00Z,28.8332,-90.8320,1011.16,11111222 
WAVCIS,ioos:station:WAVCIS:CSI15:1,2011-05-09T08:00:00Z,28.8332,-90.8320,1010.78,11111222 
WAVCIS,ioos:station:WAVCIS:CSI15:1,2011-05-09T09:00:00Z,28.8332,-90.8320,1011.03,11111222 
WAVCIS,ioos:station:WAVCIS:CSI15:1,2011-05-09T10:00:00Z,28.8332,-90.8320,1011.15,11111222 
WAVCIS,ioos:station:WAVCIS:CSI15:1,2011-05-09T11:00:00Z,28.8332,-90.8320,1011.51,11111222 
WAVCIS,ioos:station:WAVCIS:CSI15:1,2011-05-09T12:00:00Z,28.8332,-90.8320,1012.32,11111222 
WAVCIS,ioos:station:WAVCIS:CSI15:1,2011-05-09T13:00:00Z,28.8332,-90.8320,1012.78,11111222 
WAVCIS,ioos:station:WAVCIS:CSI15:1,2011-05-09T14:00:00Z,28.8332,-90.8320,1013.16,11111222 
WAVCIS,ioos:station:WAVCIS:CSI15:1,2011-05-09T15:00:00Z,28.8332,-90.8320,1013.07,11111222 
WAVCIS,ioos:station:WAVCIS:CSI15:1,2011-05-09T16:00:00Z,28.8332,-90.8320,1013.03,11111222 
WAVCIS,ioos:station:WAVCIS:CSI15:1,2011-05-09T17:00:00Z,28.8332,-90.8320,1012.82,11111222 
WAVCIS,ioos:station:WAVCIS:CSI15:1,2011-05-09T18:00:00Z,28.8332,-90.8320,1012.41,11111222 
WAVCIS,ioos:station:WAVCIS:CSI15:1,2011-05-09T19:00:00Z,28.8332,-90.8320,1012.27,11111222 
WAVCIS,ioos:station:WAVCIS:CSI15:1,2011-05-09T20:00:00Z,28.8332,-90.8320,1011.81,11111222 
WAVCIS,ioos:station:WAVCIS:CSI15:1,2011-05-09T21:00:00Z,28.8332,-90.8320,1011.24,11111222 
WAVCIS,ioos:station:WAVCIS:CSI15:1,2011-05-09T22:00:00Z,28.8332,-90.8320,1010.63,11111222 
WAVCIS,ioos:station:WAVCIS:CSI15:1,2011-05-09T23:00:00Z,28.8332,-90.8320,1010.24,11111222 
WAVCIS,ioos:station:WAVCIS:CSI15:1,2011-05-10T00:00:00Z,28.8332,-90.8320,1009.86,11111222 
WAVCIS,ioos:station:WAVCIS:CSI15:1,2011-05-10T01:00:00Z,28.8332,-90.8320,1010.07,11111222 
WAVCIS,ioos:station:WAVCIS:CSI15:1,2011-05-10T02:00:00Z,28.8332,-90.8320,1010.65,11111222 
WAVCIS,ioos:station:WAVCIS:CSI15:1,2011-05-10T03:00:00Z,28.8332,-90.8320,1010.84,11111222 
WAVCIS,ioos:station:WAVCIS:CSI15:1,2011-05-10T04:00:00Z,28.8332,-90.8320,1010.89,11111222 
WAVCIS,ioos:station:WAVCIS:CSI15:1,2011-05-10T05:00:00Z,28.8332,-90.8320,1010.78,11111222 
WAVCIS,ioos:station:WAVCIS:CSI15:1,2011-05-10T06:00:00Z,28.8332,-90.8320,1010.82,11111222 
WAVCIS,ioos:station:WAVCIS:CSI15:1,2011-05-10T07:00:00Z,28.8332,-90.8320,1010.32,11111222 
WAVCIS,ioos:station:WAVCIS:CSI15:1,2011-05-10T08:00:00Z,28.8332,-90.8320,1010.08,11111222 
WAVCIS,ioos:station:WAVCIS:CSI15:1,2011-05-10T09:00:00Z,28.8332,-90.8320,1009.94,11111222 
WAVCIS,ioos:station:WAVCIS:CSI15:1,2011-05-10T10:00:00Z,28.8332,-90.8320,1010.22,11111222 
WAVCIS,ioos:station:WAVCIS:CSI15:1,2011-05-10T11:00:00Z,28.8332,-90.8320,1010.17,11111222 
WAVCIS,ioos:station:WAVCIS:CSI15:1,2011-05-10T12:00:00Z,28.8332,-90.8320,1010.8,11111222 
WAVCIS,ioos:station:WAVCIS:CSI15:1,2011-05-10T13:00:00Z,28.8332,-90.8320,1011.22,11111222 
WAVCIS,ioos:station:WAVCIS:CSI15:1,2011-05-10T14:00:00Z,28.8332,-90.8320,1012.0,11111222 
WAVCIS,ioos:station:WAVCIS:CSI15:1,2011-05-10T15:00:00Z,28.8332,-90.8320,1012.55,11111222 
WAVCIS,ioos:station:WAVCIS:CSI15:1,2011-05-10T16:00:00Z,28.8332,-90.8320,1012.79,11111222 
WAVCIS,ioos:station:WAVCIS:CSI15:1,2011-05-10T17:00:00Z,28.8332,-90.8320,1012.95,11111222 
WAVCIS,ioos:station:WAVCIS:CSI15:1,2011-05-10T18:00:00Z,28.8332,-90.8320,1012.52,11111222 
WAVCIS,ioos:station:WAVCIS:CSI15:1,2011-05-10T19:00:00Z,28.8332,-90.8320,1012.28,11111222 
WAVCIS,ioos:station:WAVCIS:CSI15:1,2011-05-10T20:00:00Z,28.8332,-90.8320,1011.78,11111222 
WAVCIS,ioos:station:WAVCIS:CSI15:1,2011-05-10T21:00:00Z,28.8332,-90.8320,1011.03,11111222 
WAVCIS,ioos:station:WAVCIS:CSI15:1,2011-05-10T22:00:00Z,28.8332,-90.8320,1010.91,11111222 
WAVCIS,ioos:station:WAVCIS:CSI15:1,2011-05-10T23:00:00Z,28.8332,-90.8320,1010.55,11111222 
WAVCIS,ioos:station:WAVCIS:CSI15:1,2011-05-11T00:00:00Z,28.8332,-90.8320,1010.22,11111222 
WAVCIS,ioos:station:WAVCIS:CSI15:1,2011-05-11T01:00:00Z,28.8332,-90.8320,1010.56,11111222 
WAVCIS,ioos:station:WAVCIS:CSI15:1,2011-05-11T02:00:00Z,28.8332,-90.8320,1010.88,11111222 
WAVCIS,ioos:station:WAVCIS:CSI15:1,2011-05-11T03:00:00Z,28.8332,-90.8320,1011.1,11111222 
WAVCIS,ioos:station:WAVCIS:CSI15:1,2011-05-11T04:00:00Z,28.8332,-90.8320,1011.26,11111222 
WAVCIS,ioos:station:WAVCIS:CSI15:1,2011-05-11T05:00:00Z,28.8332,-90.8320,1010.91,11111222 
WAVCIS,ioos:station:WAVCIS:CSI15:1,2011-05-11T06:00:00Z,28.8332,-90.8320,1010.48,11111222 
WAVCIS,ioos:station:WAVCIS:CSI15:1,2011-05-11T07:00:00Z,28.8332,-90.8320,1010.28,11111222 
WAVCIS,ioos:station:WAVCIS:CSI15:1,2011-05-11T08:00:00Z,28.8332,-90.8320,1010.8,11111222 
WAVCIS,ioos:station:WAVCIS:CSI15:1,2011-05-11T09:00:00Z,28.8332,-90.8320,1010.66,11111222 
WAVCIS,ioos:station:WAVCIS:CSI15:1,2011-05-11T10:00:00Z,28.8332,-90.8320,1010.6,11111222 
WAVCIS,ioos:station:WAVCIS:CSI15:1,2011-05-11T11:00:00Z,28.8332,-90.8320,1010.86,11111222 
WAVCIS,ioos:station:WAVCIS:CSI15:1,2011-05-11T12:00:00Z,28.8332,-90.8320,1011.13,11111222 
WAVCIS,ioos:station:WAVCIS:CSI15:1,2011-05-11T13:00:00Z,28.8332,-90.8320,1011.69,11111222 
WAVCIS,ioos:station:WAVCIS:CSI15:1,2011-05-11T14:00:00Z,28.8332,-90.8320,1012.4,11111222 
WAVCIS,ioos:station:WAVCIS:CSI15:1,2011-05-11T15:00:00Z,28.8332,-90.8320,1012.6,11111222 
WAVCIS,ioos:station:WAVCIS:CSI15:1,2011-05-11T16:00:00Z,28.8332,-90.8320,1012.77,11111222 
WAVCIS,ioos:station:WAVCIS:CSI15:1,2011-05-11T17:00:00Z,28.8332,-90.8320,1013.08,11111222 
WAVCIS,ioos:station:WAVCIS:CSI15:1,2011-05-11T18:00:00Z,28.8332,-90.8320,1013.13,11111222 
WAVCIS,ioos:station:WAVCIS:CSI15:1,2011-05-11T19:00:00Z,28.8332,-90.8320,1013.05,11111222 
WAVCIS,ioos:station:WAVCIS:CSI15:1,2011-05-11T20:00:00Z,28.8332,-90.8320,1012.37,11111222 
WAVCIS,ioos:station:WAVCIS:CSI15:1,2011-05-11T21:00:00Z,28.8332,-90.8320,1011.87,11111222 
WAVCIS,ioos:station:WAVCIS:CSI15:1,2011-05-11T22:00:00Z,28.8332,-90.8320,1011.69,11111222 